Weather History for KFFC - January, 2014

Change the Weather History Date:

Saturday, January 11, 2014

  Actual Average Record
Temperature  
Mean Temperature 57 °F 42 °F  
Max Temperature 66 °F 53 °F 69 °F (2005)
Min Temperature 48 °F 31 °F 16 °F (1997)
Degree Days  
Heating Degree Days 8 23  
Month to date heating degree days 313 253  
Since 1 July heating degree days 1430 1434  
Cooling Degree Days 0 0  
Month to date cooling degree days 0 0  
Year to date cooling degree days 0 0  
Growing Degree Days 7 (Base 50)    
Moisture  
Dew Point 54 °F    
Average Humidity 70    
Maximum Humidity 100    
Minimum Humidity 40    
Precipitation  
Precipitation 1.71 in 0.12 in 1.71 in (2014)
Month to date precipitation 2.22 1.16  
Year to date precipitation 2.22 1.16  
Snow  
Snow 0.00 in - - ()
Month to date snowfall T  
Since 1 July snowfall T  
Snow Depth 0.00 in    
Sea Level Pressure  
Sea Level Pressure 29.86 in    
Wind  
Wind Speed 7 mph (SSW)    
Max Wind Speed 23 mph    
Max Gust Speed 37 mph    
Visibility 5 miles    
Events Fog , Rain , Thunderstorm    
T = Trace of Precipitation, MM = Missing Value Source: NWS Daily Summary

Daily Weather History Graph

Daily Weather History Graph

Search for Another Location

Airport or City:

Trip Planner

Search our weather history database for the weather conditions in past years. The results will help you decide how hot, cold, wet, or windy it might be!

Date:

Astronomy

Jan. 11, 2014 Rise Set
Actual Time 7:42 AM EST 5:50 PM EST
Civil Twilight 7:15 AM EST 6:17 PM EST
Nautical Twilight 6:44 AM EST 6:47 PM EST
Astronomical Twilight 6:15 AM EST 7:17 PM EST
Moon 2:31 PM EST (1/11) 3:49 AM EST (1/11)
Length of Visible Light 11h 01m
Length of Day
10h 07m
Waxing Gibbous, 83% of the Moon is Illuminated
Jan 11
Waxing Gibbous
Jan 15
Full
Jan 24
Last Quarter
Jan 30
New
Feb 6
First Quarter

Hourly Weather History & Observations

Time (EST) Temp. Dew Point Humidity Pressure Visibility Wind Dir Wind Speed Gust Speed Precip Events Conditions
12:04 AM 48.9 °F 48.0 °F 97% 30.01 in 0.8 mi ESE 4.6 mph - 0.01 in   Overcast
12:53 AM 48.9 °F 48.9 °F 100% 29.97 in 0.5 mi ESE 5.8 mph - 0.01 in Fog , Rain Light Rain
1:40 AM 50.0 °F 50.0 °F 100% 29.94 in 0.5 mi SE 5.8 mph - 0.02 in Fog , Rain , Thunderstorm Light Rain
1:53 AM 50.0 °F 50.0 °F 100% 29.95 in 1.5 mi SE 6.9 mph - 0.05 in Rain , Thunderstorm Rain
1:56 AM 50.0 °F 50.0 °F 100% 29.94 in 2.0 mi ESE 8.1 mph - 0.01 in Rain , Thunderstorm Rain
1:59 AM 51.1 °F 51.1 °F 100% 29.94 in 4.0 mi SSE 6.9 mph - 0.01 in Rain , Thunderstorm Light Rain
2:12 AM 52.0 °F 52.0 °F 100% 29.93 in 10.0 mi ESE 5.8 mph - 0.01 in Rain Light Rain
2:28 AM 53.1 °F 53.1 °F 100% 29.92 in 6.0 mi SE 6.9 mph - 0.01 in Rain , Thunderstorm Light Rain
2:43 AM 53.1 °F 53.1 °F 100% 29.92 in 2.5 mi SE 5.8 mph - 0.03 in Rain Light Rain
2:53 AM 53.1 °F 53.1 °F 100% 29.91 in 3.0 mi Variable 3.5 mph - 0.05 in Rain Rain
2:57 AM 54.0 °F 54.0 °F 100% 29.91 in 2.5 mi SSE 4.6 mph - 0.03 in Rain , Thunderstorm Rain
3:03 AM 55.0 °F 55.0 °F 100% 29.91 in 1.2 mi Variable 3.5 mph - 0.13 in Rain , Thunderstorm Heavy Thunderstorms and Rain
3:08 AM 55.0 °F 55.0 °F 100% 29.90 in 0.8 mi Variable 5.8 mph - 0.30 in Rain , Thunderstorm Heavy Thunderstorms and Rain
3:13 AM 55.9 °F 55.9 °F 100% 29.90 in 1.0 mi SSE 9.2 mph - 0.32 in Rain , Thunderstorm Heavy Thunderstorms and Rain
3:19 AM 57.0 °F 57.0 °F 100% 29.89 in 4.0 mi SSE 9.2 mph - 0.33 in Rain , Thunderstorm Light Thunderstorms and Rain
3:34 AM 57.9 °F 57.9 °F 100% 29.88 in 8.0 mi SSE 6.9 mph - 0.33 in Rain Light Rain
3:47 AM 59.0 °F 59.0 °F 100% 29.87 in 6.0 mi SSE 6.9 mph - 0.35 in Rain , Thunderstorm Rain
3:49 AM 59.0 °F 59.0 °F 100% 29.87 in 5.0 mi SSE 8.1 mph - 0.35 in Rain , Thunderstorm Rain
3:53 AM 59.0 °F 59.0 °F 100% 29.88 in 5.0 mi SSE 8.1 mph - 0.35 in Rain , Thunderstorm Light Rain
4:09 AM 59.0 °F 59.0 °F 100% 29.90 in 2.5 mi West 4.6 mph - 0.03 in Rain Light Rain
4:24 AM 59.0 °F 59.0 °F 100% 29.88 in 5.0 mi SE 5.8 mph - 0.04 in Rain Light Rain
4:53 AM 60.1 °F 59.0 °F 96% 29.87 in 7.0 mi Variable 5.8 mph - 0.04 in   Overcast
5:03 AM 60.1 °F 60.1 °F 100% 29.87 in 5.0 mi Variable 5.8 mph - N/A   Overcast
5:53 AM 60.1 °F 60.1 °F 100% 29.84 in 10.0 mi SSE 10.4 mph - N/A   Overcast
6:23 AM 62.1 °F 61.0 °F 96% 29.82 in 10.0 mi SSE 10.4 mph - N/A   Overcast
6:53 AM 62.1 °F 62.1 °F 100% 29.81 in 10.0 mi SSE 8.1 mph - N/A   Overcast
7:01 AM 63.0 °F 62.1 °F 97% 29.80 in 10.0 mi South 10.4 mph 19.6 mph N/A   Overcast
7:53 AM 64.0 °F 63.0 °F 96% 29.78 in 10.0 mi South 8.1 mph 17.3 mph 0.00 in   Overcast
8:53 AM 66.0 °F 64.0 °F 93% 29.79 in 4.0 mi South 8.1 mph 19.6 mph 0.02 in Rain Rain
9:01 AM 66.0 °F 64.0 °F 93% 29.80 in 1.2 mi South 10.4 mph 19.6 mph 0.09 in Rain , Thunderstorm Thunderstorms and Rain
9:12 AM 64.0 °F 61.0 °F 90% 29.83 in 2.0 mi WNW 19.6 mph 36.8 mph 0.13 in Rain , Thunderstorm Thunderstorms and Rain
9:16 AM 61.0 °F 59.0 °F 93% 29.84 in 1.8 mi West 18.4 mph 36.8 mph 0.19 in Rain Heavy Rain
9:22 AM 60.1 °F 57.9 °F 93% 29.83 in 0.5 mi WSW 11.5 mph 29.9 mph 0.50 in Fog , Rain Heavy Rain
9:25 AM 59.0 °F 59.0 °F 100% 29.84 in 0.5 mi WSW 9.2 mph 28.8 mph 0.56 in Fog , Rain , Thunderstorm Heavy Rain
9:42 AM 59.0 °F 57.9 °F 96% 29.86 in 1.2 mi SW 6.9 mph - 0.81 in Rain , Thunderstorm Heavy Thunderstorms and Rain
9:53 AM 59.0 °F 57.9 °F 96% 29.86 in 1.8 mi West 8.1 mph - 0.87 in Rain , Thunderstorm Heavy Thunderstorms and Rain
10:03 AM 59.0 °F 57.9 °F 96% 29.84 in 2.5 mi Calm Calm - 0.04 in Rain , Thunderstorm Thunderstorms and Rain
10:11 AM 59.0 °F 57.9 °F 96% 29.85 in 4.0 mi Variable 3.5 mph - 0.05 in Rain , Thunderstorm Light Thunderstorms and Rain
10:18 AM 59.0 °F 57.9 °F 96% 29.85 in 4.0 mi West 3.5 mph - 0.06 in Rain Light Rain
10:28 AM 59.0 °F 57.9 °F 96% 29.84 in 1.8 mi West 3.5 mph - 0.08 in Rain Rain
10:42 AM 59.0 °F 57.9 °F 96% 29.83 in 2.5 mi WSW 5.8 mph - 0.12 in Rain Rain
10:53 AM 59.0 °F 57.9 °F 96% 29.83 in 2.0 mi West 3.5 mph - 0.16 in Rain Rain
11:00 AM 59.0 °F 57.9 °F 96% 29.83 in 1.5 mi South 3.5 mph - 0.03 in Rain Rain
11:27 AM 57.9 °F 57.9 °F 100% 29.83 in 2.0 mi Calm Calm - 0.13 in Rain Light Rain
11:33 AM 57.9 °F 57.0 °F 97% 29.82 in 5.0 mi North 5.8 mph - 0.13 in Rain Light Rain
11:45 AM 57.9 °F 57.0 °F 97% 29.82 in 4.0 mi Calm Calm - 0.15 in Rain Light Rain
11:53 AM 57.9 °F 57.0 °F 97% 29.83 in 5.0 mi Calm Calm - 0.16 in Rain Light Rain
12:53 PM 59.0 °F 57.0 °F 93% 29.81 in 10.0 mi WSW 5.8 mph - 0.00 in   Mostly Cloudy
1:53 PM 60.1 °F 53.1 °F 78% 29.78 in 10.0 mi Variable 6.9 mph - N/A   Partly Cloudy
2:53 PM 63.0 °F 51.1 °F 65% 29.75 in 10.0 mi West 8.1 mph - N/A   Clear
3:53 PM 64.0 °F 46.9 °F 54% 29.74 in 10.0 mi West 10.4 mph - N/A   Clear
4:53 PM 64.0 °F 39.0 °F 40% 29.74 in 10.0 mi West 6.9 mph - N/A   Scattered Clouds
5:53 PM 61.0 °F 37.0 °F 41% 29.76 in 10.0 mi WSW 5.8 mph - N/A   Mostly Cloudy
6:53 PM 57.9 °F 36.0 °F 44% 29.80 in 10.0 mi West 6.9 mph - N/A   Clear
7:53 PM 55.9 °F 34.0 °F 44% 29.85 in 10.0 mi West 9.2 mph 17.3 mph N/A   Clear
8:53 PM 54.0 °F 30.9 °F 41% 29.88 in 10.0 mi West 6.9 mph - N/A   Clear
9:53 PM 53.1 °F 33.1 °F 47% 29.91 in 10.0 mi WNW 10.4 mph - N/A   Clear
10:53 PM 50.0 °F 35.1 °F 57% 29.95 in 10.0 mi NW 8.1 mph - N/A   Clear
11:53 PM 48.9 °F 37.0 °F 64% 29.98 in 10.0 mi WNW 9.2 mph - N/A   Clear